This is the latest recevied weather packets stored in our database for station/object TF3VP-10. If no packets are shown the sender has not sent any weather packets the latest 1 day(s).
| Time | Temp. | Humidity | Pressure | Rain* | Wind** | Luminosity | Snow |
|---|---|---|---|---|---|---|---|
| 1778069148 | 5° C | 41% | 1036.5 hPa | - | - | - | - |
| 1778068248 | 4.44° C | 41% | 1036.4 hPa | - | - | - | - |
| 1778067348 | 3.89° C | 42% | 1036.4 hPa | - | - | - | - |
| 1778066448 | 3.89° C | 46% | 1036.6 hPa | - | - | - | - |
| 1778064648 | 3.89° C | 45% | 1036.4 hPa | - | - | - | - |
| 1778063748 | 3.89° C | 48% | 1036.6 hPa | - | - | - | - |
| 1778061948 | 2.78° C | 50% | 1036.5 hPa | - | - | - | - |
| 1778061048 | 2.78° C | 51% | 1036.8 hPa | - | - | - | - |
| 1778060148 | 2.78° C | 53% | 1037.1 hPa | - | - | - | - |
| 1778058348 | 2.22° C | 51% | 1036.5 hPa | - | - | - | - |
| 1778057448 | 1.67° C | 52% | 1036.3 hPa | - | - | - | - |
| 1778055648 | 1.67° C | 53% | 1036.3 hPa | - | - | - | - |
| 1778054748 | 1.67° C | 52% | 1036.4 hPa | - | - | - | - |
| 1778052948 | 1.11° C | 52% | 1036.1 hPa | - | - | - | - |
| 1778051148 | 0.56° C | 53% | 1035.9 hPa | - | - | - | - |
| 1778047548 | 0° C | 56% | 1035.8 hPa | - | - | - | - |
| 1778045747 | 0.56° C | 55% | 1035.3 hPa | - | - | - | - |
| 1778043948 | 0.56° C | 52% | 1035.5 hPa | - | - | - | - |
| 1778042147 | 0° C | 55% | 1035.7 hPa | - | - | - | - |
| 1778040348 | 0° C | 57% | 1035.6 hPa | - | - | - | - |
| 1778039448 | 0° C | 57% | 1035.4 hPa | - | - | - | - |
| 1778038548 | 0° C | 57% | 1035.2 hPa | - | - | - | - |
| 1778037648 | 0° C | 56% | 1035.1 hPa | - | - | - | - |
| 1778036748 | 0° C | 57% | 1035.3 hPa | - | - | - | - |
| 1778035847 | 0° C | 58% | 1035.2 hPa | - | - | - | - |
* Rain since midnight (hover to see other rain measurements)
** Current wind speed in m/s (hover to see current wind gust speed)